Preview of NWS' New Version of Forecast
This preview is not operational and should not be used for support decisions.

Regional Weather Roundup (RWR)

Issued by National Weather Service (NWS)

                            
000
ASUS43 KLSX 181707
RWRMO 

WEATHER SUMMARY FOR MISSOURI
NATIONAL WEATHER SERVICE SPRINGFIELD MO
1100 AM CST MON FEB 18 2019

NOTE: "FAIR" INDICATES FEW OR NO CLOUDS BELOW 12,000 FEET WITH NO
       SIGNIFICANT WEATHER AND/OR OBSTRUCTIONS TO VISIBILITY.
       CURRENT SKY AND/OR WEATHER CONDITIONS ARE NOT AVAILABLE FOR
       CHILLICOTHE AND FARMINGTON.

MOZ001>031-035>038-043-044-053-054-181800-
...NORTHERN AND WESTERN MISSOURI...
  
CITY           SKY/WX    TMP DP  RH WIND       PRES   REMARKS
KANSAS CTY INT CLOUDY    20  14  77 W6        30.48R WCI  12          
KANSAS C DTWN  CLOUDY    21  14  74 NW6       30.50R WCI  13          
LEE'S SUMMIT   CLOUDY    21  16  81 NW9       30.47R WCI  11          
ST JOSEPH      CLOUDY    20  17  88 N3        30.50R                  
CHILLICOTHE      N/A     23  17  78 NW8       30.47R WCI  14          
KIRKSVILLE     CLOUDY    24  18  77 NW8       30.43R WCI  15          
     
$$
MOZ066>068-077>081-088>096-101>105-181800-
...SOUTHWEST MISSOURI...
  
CITY           SKY/WX    TMP DP  RH WIND       PRES   REMARKS
SPRINGFIELD    SUNNY     27  18  69 N8        30.42R WCI  19          
JOPLIN         MOSUNNY   25  17  72 N8        30.47R WCI  16          
BRANSON        PTSUNNY   27  18  69 N6        30.43R WCI  20          
               
$$
MOZ032>034-039>042-045>050-055>058-069>072-181800-
...CENTRAL MISSOURI...  
  
CITY           SKY/WX    TMP DP  RH WIND       PRES   REMARKS
COLUMBIA       CLOUDY    25  17  72 NW7       30.43R WCI  17          
JEFFERSON CITY CLOUDY    26  17  68 W7        30.46R WCI  18          
ROLLA          MOSUNNY   27  16  63 N6        30.41R WCI  20          
SEDALIA        FLURRIES  22  17  81 NW6       30.46R WCI  14          
WHITEMAN AFB   CLOUDY    22  16  77 N5        30.36S WCI  16          
WARRENSBURG    CLOUDY    23  18  80 NW6       30.48R WCI  16          
OSAGE BEACH    MOSUNNY   32  19  58 VRB5      30.45R WCI  27          
               
$$
MOZ051-052-059>065-181800-
...EAST CENTRAL MISSOURI...
  
CITY           SKY/WX    TMP DP  RH WIND       PRES   REMARKS
ST LOUIS INTL  FLURRIES  29  20  69 NW8       30.41R WCI  21          
SPIRIT OF STL  CLOUDY    29  20  69 W9        30.42R WCI  20          
ST CHARLES     CLOUDY    28  21  75 W13       30.42R WCI  17          
                   
$$
MOZ072>076-082>087-097>100-106>115-181800-
...SOUTH CENTRAL AND SOUTHEAST MISSOURI...
  
CITY           SKY/WX    TMP DP  RH WIND       PRES   REMARKS
CAPE GIRARDEAU CLOUDY    31  20  63 N6        30.43R WCI  25          
FARMINGTON     MOSUNNY   28  19  69 N8        30.40R WCI  20          
POPLAR BLUFF   FAIR      33  20  58 CALM      30.43R                  
WEST PLAINS    MOSUNNY   31  22  69 N8        30.40R WCI  23          
                                       
$$